Regional Weather Roundup
Issued by NWS Northern Indiana

Home | Current Version | Previous Version | Text Only | Print | Product List | Glossary On
Versions: 1 2 3 4 5 6 7 8 9 10 11 12 13 14 15 16 17 18 19 20 21 22 23 24 25 26 27 28 29 30 31 32 33 34 35 36 37 38 39 40 41 42 43 44 45 46 47 48 49 50
000
ASUS43 KIWX 171100
RWRIWX

KIWX WEATHER ROUNDUP
NATIONAL WEATHER SERVICE NORTHERN INDIANA
700 AM EDT THU APR 17 2014

NOTE: "FAIR" INDICATES FEW OR NO CLOUDS BELOW 12,000 FEET WITH NO
SIGNIFICANT WEATHER AND/OR OBSTRUCTIONS TO VISIBILITY.

* THESE STATIONS ARE NOT UNDER NWS QUALITY CONTROL. THEY ALSO MAY NOT
  REPORT WEATHER SUCH AS PRECIPITATION OR FOG.

INZ001>027-171200-
NORTHERN INDIANA

CITY           SKY/WX    TMP DP  RH WIND       PRES   REMARKS
GARY*          MOCLDY    43  25  49 SE14      30.16S
VALPARAISO     PTCLDY    37  24  59 SE8       30.19S
LAPORTE*       PTCLDY    37  24  61 SE7       30.21S
SOUTH BEND     PTCLDY    38  24  57 SE10G21   30.22
ELKHART*       PTCLDY    36  25  64 SE8       30.23
GOSHEN         PTCLDY    36  25  64 SE10      30.24S
MONTICELLO*    PTCLDY    36  26  66 SE5       30.20F
ANGOLA*        CLEAR     34  25  69 SE8       30.27R WCI  27
FORT WAYNE     PTCLDY    30  23  75 E6        30.27R WCI  24
PERU/GRISSOM   PTCLDY    32  29  89 SE9       30.23R WCI  24

$$
INZ028>050-171200-
CENTRAL INDIANA

CITY           SKY/WX    TMP DP  RH WIND       PRES   REMARKS
LAFAYETTE      CLEAR     38  25  59 SE7       30.21R
KOKOMO*        CLEAR     36  25  64 S12       30.24R
MUNCIE*        CLEAR     40  22  48 S9        30.25R
INDIANAPOLIS   PTCLDY    34  24  67 CALM      30.24R

$$
MIZ043>046-050>051-056>058-064>065-071>073-077>080-171200-
SOUTHWEST LOWER MICHIGAN

CITY           SKY/WX    TMP DP  RH WIND       PRES   REMARKS
BATTLE CREEK   MOCLDY    35  24  64 SE8       30.26S WCI  29
BENTON HARBOR  MOCLDY    36  26  67 SE12      30.20F
COLDWATER*     MOCLDY    34  23  63 SE10      30.26F WCI  26
HILLSDALE*     PTCLDY    34  24  64 SE10      30.28S WCI  26
HOLLAND        MOCLDY    38  25  59 SE13      30.22F
GRAND RAPIDS   MOCLDY    35  27  72 SE14      30.25F WCI  26
KALAMAZOO      MOCLDY    37  23  56 SE8       30.25S
STURGIS*       MOCLDY    36  23  60 SE13      30.24F
THREE RIVERS*  FAIR      37  23  56 SE3       30.26S

$$
OHZ001>008-015>018-024>025-171200-
NORTHWEST OHIO

CITY           SKY/WX    TMP DP  RH WIND       PRES   REMARKS
DEFIANCE       CLEAR     31  23  72 E5        30.31R WCI  26
FINDLAY        CLEAR     34  23  64 SE9       30.30R WCI  27
TOLEDO EXPRESS PTCLDY    32  21  64 E5        30.31R WCI  27
TOLEDO METCALF PTCLDY    35  21  56 E5        30.33R WCI  31
LIMA           CLEAR     37  23  56 SE12      30.28R

$$
&&



USA.gov is the U.S. government's official web portal to all federal, state and local government web resources and services.